Home > Weather > Sarh > Past weeks

Flag for Chad Past Weather in Sarh, Chad — Yesterday and Last 2 Weeks

Now
73 °F

Clear.


Feels Like: 70 °F
Forecast: 72 / 85 °F
Wind: No wind

Location: Sarh Airport

Current Time: Jul 30, 2016 at 4:38:41 AM

Latest Report: Jul 30, 2016 at 4:00 AM


Visibility: 10 mi

Pressure: 29.92 "Hg

Humidity: 94%

Dew Point: 72 °F

Location of SarhLocation

Past Weather in Sarh — Graph

°F

Sarh Temperature Yesterday

Maximum temperature yesterday: 79 °F (at 3:00 PM)
Minimum temperature yesterday: 72 °F (at 12:00 AM)
Average temperature yesterday: 75 °F

High & Low Weather Summary for the Past Weeks

 TemperatureHumidityPressure
High93 °F (Jul 17, 2:00 PM)100% (Jul 21, 6:00 AM)30.04 "Hg (Jul 21, 6:00 AM)
Low70 °F (Jul 23, 6:00 AM)21% (Jul 27, 8:00 PM)29.80 "Hg (Jul 25, 5:00 PM)
Average79 °F81%29.93 "Hg
* Reported Jul 15 3:00 AM — Jul 30 3:00 AM, Sarh, Weather by CustomWeather, © 2016

Note: Actual official high and low records may vary slightly from our data, if they occured in-between our weather recording intervals... More about our weather records

Advertising

Sarh Weather History for the Previous 24 Hours

Scroll right to see more
 ConditionsComfort  
Time TempWeatherWind HumidityBarometerVisibility
3:00 AM
Sat, Jul 30
73 °FClear.No wind94%29.92 "Hg10 mi
2:00 AM73 °FClear.No wind94%29.92 "Hg10 mi
1:00 AM73 °FClear.No wind94%29.92 "Hg10 mi
12:00 AM75 °FClear.No wind89%29.95 "Hg10 mi
11:00 PM
Fri, Jul 29
75 °FClear.5 mph89%29.95 "Hg10 mi
10:00 PM75 °FClear.9 mph89%30.01 "Hg10 mi
9:00 PM75 °FClear.7 mph94%29.95 "Hg10 mi
8:00 PM77 °FClear.No wind83%29.92 "Hg10 mi
5:00 PM79 °FScattered clouds.No wind79%29.89 "HgN/A
3:00 PM79 °FPartly sunny.7 mph79%29.92 "HgN/A
2:00 PM77 °FPartly sunny.5 mph79%29.92 "HgN/A
1:00 PM77 °FPartly sunny.7 mph79%29.95 "HgN/A
12:00 PM77 °FLight rain. Partly sunny.7 mph83%29.98 "HgN/A
11:00 AM75 °FLight rain. Partly sunny.7 mph83%30.01 "HgN/A
10:00 AM75 °FLight rain. Partly sunny.9 mph83%29.98 "HgN/A
8:00 AM73 °FLight rain. Partly sunny.No wind89%29.98 "HgN/A
7:00 AM73 °FLight rain. Overcast.17 mph89%29.95 "HgN/A
6:00 AM72 °FOvercast.12 mph94%29.92 "HgN/A
5:00 AM72 °FPassing clouds.No wind94%29.89 "HgN/A
4:00 AM72 °FPassing clouds.No wind94%29.89 "HgN/A
Weather by CustomWeather, © 2016

See weather overviewHow to use our weather pages